TimePST,TemperatureF,Dew PointF,Humidity,Sea Level PressureIn,VisibilityMPH,Wind Direction,Wind SpeedMPH,Gust SpeedMPH,PrecipitationIn,Events,Conditions,WindDirDegrees,DateUTC
12:55 AM,28.9,26.1,89,30.12,9.0,Calm,Calm,-,N/A,,Clear,0,2012-12-03 08:55:00
1:55 AM,28.0,26.1,92,30.13,8.0,Calm,Calm,-,N/A,,Clear,0,2012-12-03 09:55:00
2:55 AM,26.1,24.1,92,30.15,10.0,Calm,Calm,-,N/A,,Clear,0,2012-12-03 10:55:00
3:55 AM,26.1,24.1,92,30.14,9.0,Calm,Calm,-,N/A,,Clear,0,2012-12-03 11:55:00
4:55 AM,28.0,25.0,88,30.17,10.0,South,5.8,-,N/A,,Clear,180,2012-12-03 12:55:00
5:55 AM,26.1,24.1,92,30.19,10.0,NE,3.5,-,N/A,,Clear,40,2012-12-03 13:55:00
6:55 AM,25.0,23.0,92,30.22,10.0,ENE,3.5,-,N/A,,Clear,70,2012-12-03 14:55:00
7:55 AM,27.0,25.0,92,30.24,10.0,East,4.6,-,N/A,,Clear,80,2012-12-03 15:55:00
8:55 AM,30.0,28.0,92,30.24,6.0,ENE,3.5,-,N/A,,Clear,60,2012-12-03 16:55:00
9:55 AM,34.0,28.9,82,30.25,10.0,Calm,Calm,-,N/A,,Clear,0,2012-12-03 17:55:00
10:55 AM,37.0,32.0,82,30.24,10.0,Calm,Calm,-,N/A,,Clear,0,2012-12-03 18:55:00
11:55 AM,42.1,32.0,67,30.17,10.0,South,8.1,-,N/A,,Clear,180,2012-12-03 19:55:00
12:55 PM,44.1,28.9,55,30.15,10.0,South,10.4,-,N/A,,Clear,180,2012-12-03 20:55:00
1:55 PM,46.0,30.0,54,30.14,10.0,SSE,8.1,-,N/A,,Clear,160,2012-12-03 21:55:00
2:55 PM,45.0,28.9,53,30.16,10.0,West,5.8,-,N/A,,Scattered Clouds,280,2012-12-03 22:55:00
3:55 PM,44.1,30.0,58,30.16,10.0,Calm,Calm,-,N/A,,Overcast,0,2012-12-03 23:55:00
4:55 PM,41.0,28.9,62,30.15,10.0,Calm,Calm,-,N/A,,Partly Cloudy,0,2012-12-04 00:55:00
5:55 PM,39.9,32.0,73,30.17,10.0,SSE,4.6,-,N/A,,Overcast,150,2012-12-04 01:55:00
6:55 PM,39.9,32.0,73,30.16,10.0,SSE,6.9,-,N/A,,Overcast,150,2012-12-04 02:55:00
7:55 PM,42.1,30.0,62,30.13,10.0,South,8.1,-,N/A,,Overcast,180,2012-12-04 03:55:00
8:55 PM,42.1,30.0,62,30.13,10.0,South,6.9,-,N/A,,Overcast,170,2012-12-04 04:55:00
9:55 PM,42.1,28.9,60,30.12,10.0,South,8.1,-,N/A,,Overcast,170,2012-12-04 05:55:00
10:55 PM,42.1,30.9,65,30.09,10.0,South,8.1,-,N/A,,Overcast,170,2012-12-04 06:55:00
11:55 PM,44.1,32.0,63,30.07,10.0,South,11.5,-,N/A,,Overcast,190,2012-12-04 07:55:00